EW2998 Weather Reports


time (UTC)temp
F
wind
direction
speed
knots
gust
knots
rain 1hr
in
rain 24hr
in
rain mn
in
humidity
%
barometer
mb
20260505034003 60 189 1.7 3.5 0.00 0.00 0.00 65 1008.5
20260505033504 60 188 0.9 3.5 0.00 0.00 0.00 65 1008.4
20260505033003 60 187 0.9 2.6 0.00 0.00 0.00 64 1008.4
20260505032503 60 186 1.7 4.3 0.00 0.00 0.00 64 1008.5
20260505032003 60 185 1.7 4.3 0.00 0.00 0.00 64 1008.4
20260505031002 60 188 0.9 2.6 0.00 0.00 0.00 64 1008.7
20260505030005 60 194 0.0 1.7 0.00 0.00 0.00 64 1008.8
20260505025503 60 219 0.0 1.7 0.00 0.00 0.00 63 1008.7
20260505025003 60 179 0.0 1.7 0.00 0.00 0.00 63 1008.6
20260505024003 60 173 0.0 1.7 0.00 0.00 0.00 62 1008.5
20260505023503 60 174 0.0 1.7 0.00 0.00 0.00 62 1008.6
20260505023003 60 175 0.0 1.7 0.00 0.00 0.00 61 1008.5
20260505022503 60 176 0.9 2.6 0.00 0.00 0.00 61 1008.6
20260505022003 61 176 0.9 2.6 0.00 0.00 0.00 60 1008.6
20260505021503 61 175 0.9 3.5 0.00 0.00 0.00 60 1008.6
20260505021003 61 175 0.9 3.5 0.00 0.00 0.00 59 1008.5
20260505020505 61 176 0.9 2.6 0.00 0.00 0.00 59 1008.6
20260505020003 60 176 0.9 2.6 0.00 0.00 0.00 59 1008.8
20260505015002 60 172 0.9 1.7 0.00 0.00 0.00 59 1008.8
20260505014003 61 234 0.0 0.9 0.00 0.00 0.00 59 1008.9
20260505013503 61 235 0.0 0.9 0.00 0.00 0.00 58 1008.8
20260505012503 62 237 0.0 1.7 0.00 0.00 0.00 57 1008.6
20260505012003 62 231 0.0 0.9 0.00 0.00 0.00 57 1008.6
20260505011503 62 229 0.0 1.7 0.00 0.00 0.00 56 1008.4
20260505011005 62 213 0.0 3.5 0.00 0.00 0.00 56 1008.3
20260505010503 63 189 0.9 3.5 0.00 0.00 0.00 56 1008.2
20260505005503 63 211 1.7 5.2 0.00 0.00 0.00 54 1008.2
20260505004503 64 203 0.9 5.2 0.00 0.00 0.00 53 1008.3
20260505003503 64 193 1.7 5.2 0.00 0.00 0.00 52 1008.2
20260505003003 64 190 1.7 5.2 0.00 0.00 0.00 52 1008.3
20260505002503 64 189 0.9 3.5 0.00 0.00 0.00 51 1008.2
20260505002003 64 189 1.7 6.1 0.00 0.00 0.00 49 1008.2
20260505001505 65 193 2.6 6.1 0.00 0.00 0.00 49 1008.1
20260505001003 65 194 1.7 6.1 0.00 0.00 0.00 48 1008.1
20260505000004 65 189 1.7 6.1 0.00 0.00 0.00 47 1007.9
20260504235003 66 193 1.7 4.3 0.00 0.00 0.00 47 1008.0
20260504234003 66 191 1.7 5.2 0.00 0.00 0.00 46 1007.9
20260504233502 67 187 2.6 6.1 0.00 0.00 0.00 45 1007.9
20260504233003 68 183 2.6 6.1 0.00 0.00 0.00 44 1007.9
20260504232503 68 184 2.6 7.0 0.00 0.00 0.00 44 1007.9
20260504232005 69 190 1.7 7.0 0.00 0.00 0.00 43 1008.0
20260504231503 69 186 2.6 7.0 0.00 0.00 0.00 42 1008.0
20260504231003 69 184 2.6 7.0 0.00 0.00 0.00 42 1008.0
20260504230503 70 184 2.6 7.8 0.00 0.00 0.00 42 1008.1
20260504230003 70 188 2.6 7.8 0.00 0.00 0.00 41 1008.0
20260504225503 70 195 2.6 7.0 0.00 0.00 0.00 42 1008.0
20260504225003 70 191 2.6 7.0 0.00 0.00 0.00 41 1008.0
20260504223503 71 193 1.7 7.8 0.00 0.00 0.00 42 1008.1
20260504223003 71 191 2.6 5.2 0.00 0.00 0.00 41 1008.1
20260504222004 71 181 2.6 10.4 0.00 0.00 0.00 41 1008.1
20260504221003 71 189 2.6 8.7 0.00 0.00 0.00 41 1008.0
20260504220505 71 181 3.5 8.7 0.00 0.00 0.00 41 1008.0
20260504215503 71 183 3.5 11.3 0.00 0.00 0.00 39 1008.0
20260504215003 71 181 2.6 7.8 0.00 0.00 0.00 39 1008.0
20260504214003 71 192 3.5 7.8 0.00 0.00 0.00 40 1008.0
20260504213503 71 186 3.5 9.6 0.00 0.00 0.00 39 1008.0
20260504213003 71 179 3.5 9.6 0.00 0.00 0.00 39 1008.2
20260504212503 72 184 3.5 10.4 0.00 0.00 0.00 40 1008.1
20260504212003 72 187 3.5 10.4 0.00 0.00 0.00 39 1008.1
20260504211503 72 182 3.5 7.8 0.00 0.00 0.00 38 1008.1
20260504211005 72 179 4.3 12.2 0.00 0.00 0.00 39 1008.0
20260504210503 72 190 4.3 12.2 0.00 0.00 0.00 39 1008.0
20260504210004 72 200 3.5 9.6 0.00 0.00 0.00 38 1008.0
20260504205504 73 205 2.6 7.0 0.00 0.00 0.00 39 1007.9
20260504205003 72 195 3.5 9.6 0.00 0.00 0.00 41 1008.0
20260504204503 72 188 3.5 9.6 0.00 0.00 0.00 39 1008.0
20260504204003 73 186 2.6 8.7 0.00 0.00 0.00 38 1008.0
20260504203503 73 183 3.5 8.7 0.00 0.00 0.00 39 1007.9
20260504203003 73 184 3.5 8.7 0.00 0.00 0.00 39 1007.9
20260504202503 73 183 3.5 7.8 0.00 0.00 0.00 40 1008.0
20260504202003 73 188 3.5 7.0 0.00 0.00 0.00 39 1008.1
20260504201003 73 184 3.5 8.7 0.00 0.00 0.00 38 1008.2
20260504200503 73 193 3.5 8.7 0.00 0.00 0.00 39 1008.3
20260504200003 73 204 2.6 7.8 0.00 0.00 0.00 38 1008.4
20260504195503 73 188 2.6 9.6 0.00 0.00 0.00 41 1008.6
20260504195003 73 185 2.6 9.6 0.00 0.00 0.00 41 1008.6
20260504194503 73 183 3.5 7.8 0.00 0.00 0.00 40 1008.6
20260504194003 72 182 3.5 7.8 0.00 0.00 0.00 39 1008.8
20260504193503 73 195 2.6 7.8 0.00 0.00 0.00 39 1008.8
20260504193003 73 196 2.6 7.8 0.00 0.00 0.00 41 1008.9
20260504192504 73 185 1.7 5.2 0.00 0.00 0.00 41 1009.0
20260504192005 73 189 2.6 8.7 0.00 0.00 0.00 41 1009.0
20260504191503 73 186 3.5 8.7 0.00 0.00 0.00 40 1009.1
20260504191003 73 199 3.5 9.6 0.00 0.00 0.00 38 1009.3
20260504190504 73 213 2.6 9.6 0.00 0.00 0.00 40 1009.5
20260504190004 73 206 2.6 6.1 0.00 0.00 0.00 38 1009.3
20260504185503 72 203 3.5 7.0 0.00 0.00 0.00 39 1009.5
20260504185003 72 213 3.5 9.6 0.00 0.00 0.00 37 1009.6
20260504184503 72 216 3.5 9.6 0.00 0.00 0.00 40 1009.6
20260504184003 72 208 3.5 9.6 0.00 0.00 0.00 39 1009.6
20260504182503 72 195 2.6 10.4 0.00 0.00 0.00 39 1009.7
20260504182004 72 211 3.5 10.4 0.00 0.00 0.00 39 1009.6
20260504181503 71 215 3.5 8.7 0.00 0.00 0.00 37 1009.7
20260504181003 72 198 3.5 8.7 0.00 0.00 0.00 41 1009.8
20260504180503 72 195 3.5 7.0 0.00 0.00 0.00 40 1010.0
20260504180003 71 198 3.5 7.0 0.00 0.00 0.00 39 1009.9
20260504175503 71 203 3.5 13.0 0.00 0.00 0.00 42 1009.9
20260504175003 71 220 3.5 13.0 0.00 0.00 0.00 38 1010.1
20260504174504 71 220 2.6 9.6 0.00 0.00 0.00 39 1010.2
20260504174004 71 223 3.5 11.3 0.00 0.00 0.00 41 1010.2
20260504173503 70 216 3.5 11.3 0.00 0.00 0.00 39 1010.3
20260504173003 71 203 2.6 9.6 0.00 0.00 0.00 40 1010.3
20260504172505 70 200 2.6 9.6 0.00 0.00 0.00 39 1010.4
20260504172004 70 218 2.6 8.7 0.00 0.00 0.00 39 1010.5
20260504171003 71 197 1.7 7.0 0.00 0.00 0.00 43 1010.6
20260504170503 71 189 2.6 7.0 0.00 0.00 0.00 41 1010.8
20260504151003 65 251 1.7 6.1 0.00 0.00 0.00 45 1012.0
20260504150503 65 240 2.6 7.0 0.00 0.00 0.00 44 1012.0
20260504141003 61 211 2.6 7.0 0.00 0.00 0.00 53 1012.2
20260504100503 41 0 0.0 0.0 0.00 0.00 0.00 73 1013.0
20260504082003 42 0 0.0 0.0 0.00 0.00 0.00 67 1013.1
20260504081503 43 0 0.0 0.0 0.00 0.00 0.00 68 1012.9
20260504081003 43 326 0.0 0.9 0.00 0.00 0.00 67 1013.0
20260504080503 43 326 0.0 0.9 0.00 0.00 0.00 66 1012.9
20260504050504 44 0 0.0 0.0 0.00 0.00 0.00 65 1013.2
20260504050004 44 0 0.0 0.0 0.00 0.00 0.00 65 1013.2
20260504045503 44 0 0.0 0.0 0.00 0.00 0.00 65 1013.4
20260504045003 44 0 0.0 0.0 0.00 0.00 0.00 64 1013.3
20260504044003 45 0 0.0 0.0 0.00 0.00 0.00 63 1013.3
20260504043003 45 0 0.0 0.0 0.00 0.00 0.00 61 1013.2
20260504042003 45 0 0.0 0.0 0.00 0.00 0.00 61 1013.2
20260504041003 46 0 0.0 0.0 0.00 0.00 0.00 61 1013.1
20260504040504 46 0 0.0 0.0 0.00 0.00 0.00 61 1013.0